TimeEDT,TemperatureF,Dew PointF,Humidity,Sea Level PressureIn,VisibilityMPH,Wind Direction,Wind SpeedMPH,Gust SpeedMPH,PrecipitationIn,Events,Conditions,WindDirDegrees,DateUTC
5:15 PM,-9999,-9999,N/A,-9999,-9999.0,North,-9999.0,-,N/A,,Unknown,0,2013-10-08 21:15:00
5:35 PM,56.8,50.9,80,30.16,10.0,Calm,Calm,-,N/A,,Mostly Cloudy,0,2013-10-08 21:35:00
5:55 PM,56.7,52.0,84,30.16,10.0,Calm,Calm,-,N/A,,Scattered Clouds,0,2013-10-08 21:55:00
6:15 PM,56.5,51.1,82,30.16,10.0,NNE,3.5,-,N/A,,Scattered Clouds,30,2013-10-08 22:15:00
6:35 PM,57.2,50.7,79,30.17,10.0,NE,4.6,-,N/A,,Mostly Cloudy,40,2013-10-08 22:35:00
6:55 PM,57.2,50.9,79,30.17,10.0,NE,3.5,-,N/A,,Overcast,50,2013-10-08 22:55:00
7:15 PM,57.0,50.9,80,30.18,10.0,NE,3.5,-,N/A,,Overcast,50,2013-10-08 23:15:00
7:35 PM,57.2,50.0,77,30.18,10.0,NNE,6.9,-,N/A,,Overcast,30,2013-10-08 23:35:00
7:55 PM,57.2,49.8,76,30.18,10.0,NNE,5.8,-,N/A,,Overcast,20,2013-10-08 23:55:00
8:15 PM,57.4,49.5,75,30.18,10.0,North,4.6,-,N/A,,Overcast,360,2013-10-09 00:15:00
8:35 PM,57.7,48.4,71,30.18,10.0,North,8.1,-,N/A,,Overcast,10,2013-10-09 00:35:00
8:55 PM,57.6,48.4,71,30.19,10.0,NNE,10.4,20.7,N/A,,Overcast,20,2013-10-09 00:55:00
9:15 PM,57.6,48.4,71,30.19,10.0,North,6.9,-,N/A,,Overcast,10,2013-10-09 01:15:00
9:35 PM,57.7,48.4,71,30.19,10.0,NNE,6.9,-,N/A,,Overcast,20,2013-10-09 01:35:00
9:55 PM,58.3,47.7,68,30.19,10.0,NNE,12.7,-,N/A,,Overcast,20,2013-10-09 01:55:00
10:15 PM,58.1,48.2,70,30.20,10.0,North,8.1,-,N/A,,Overcast,10,2013-10-09 02:15:00
10:35 PM,57.6,49.6,75,30.20,10.0,NNW,5.8,-,N/A,Rain,Light Rain,340,2013-10-09 02:35:00
10:55 PM,55.9,50.4,82,30.20,10.0,North,8.1,-,N/A,Rain,Light Rain,350,2013-10-09 02:55:00
11:15 PM,55.0,50.2,84,30.19,10.0,North,8.1,-,N/A,,Overcast,360,2013-10-09 03:15:00
11:35 PM,54.5,50.4,86,30.18,10.0,North,9.2,-,N/A,,Overcast,350,2013-10-09 03:35:00
11:55 PM,54.3,50.2,86,30.18,10.0,North,6.9,-,N/A,,Overcast,360,2013-10-09 03:55:00